Location: Newark
(6.1167°N, 1.2167°E)
Time: 18:43:19
(UTC+00:00)

Tiangong 2 - Visible Passes

Search period start: 23 March 2019 00:00
Search period end: 02 April 2019 00:00
Orbit: 380 x 390 km, 42.8° (Epoch: 23 March)

Date Brightness Start Highest point End Pass type
(mag) Time Alt. Az. Time Alt. Az. Time Alt. Az.
24 Mar 1.7 19:10:03 10° SSW 19:12:39 39° SSE 19:12:39 39° SSE visible
25 Mar 3.8 19:47:44 10° W 19:49:25 19° WNW 19:49:25 19° WNW visible
26 Mar 1.6 18:47:36 10° SW 18:50:41 59° NW 18:53:46 10° NE visible
27 Mar 3.9 04:39:49 10° N 04:41:57 17° NE 04:44:05 10° E visible
28 Mar 1.2 05:16:07 11° NW 05:19:06 56° SW 05:22:13 10° SE visible
28 Mar 3.7 18:25:55 10° W 18:28:22 21° NW 18:30:48 10° N visible
29 Mar 2.9 04:20:35 32° E 04:20:35 32° E 04:22:40 10° ESE visible
30 Mar 2.8 04:57:20 19° SSW 04:57:20 19° SSW 04:59:06 10° S visible
